CW7427 Weather Reports


Display with metric or nautical units.
time (UTC)temp
F
wind
direction
speed
MPH
gust
MPH
rain 1hr
in
rain 24hr
in
rain mn
in
humidity
%
barometer
mb
20221201070210 67 67 0.0 4.0 0.00 0.00 0.00 63 1012.6
20221201065654 68 48 1.0 4.0 0.00 0.00 0.00 63 1012.6
20221201065149 68 113 1.0 8.0 0.00 0.00 0.00 63 1012.5
20221201064638 68 38 1.0 8.0 0.00 0.00 0.00 63 1012.6
20221201064134 68 122 1.0 6.0 0.00 0.00 0.00 62 1012.5
20221201063622 68 150 2.0 7.0 0.00 0.00 0.00 61 1012.5
20221201063112 68 59 2.0 7.0 0.00 0.00 0.00 61 1012.5
20221201062606 68 68 2.0 7.0 0.00 0.00 0.00 60 1012.4
20221201062056 68 80 1.0 7.0 0.00 0.00 0.00 61 1012.4
20221201061546 68 108 1.0 7.0 0.00 0.00 0.00 59 1012.4
20221201061036 68 96 1.0 7.0 0.00 0.00 0.00 59 1012.4
20221201060529 68 53 1.0 7.0 0.00 0.00 0.00 60 1012.4
20221201060015 68 117 1.0 6.0 0.00 0.00 0.00 59 1012.4
20221201055505 69 122 2.0 6.0 0.00 0.00 0.00 56 1012.3
20221201055002 69 70 2.0 6.0 0.00 0.00 0.00 58 1012.3
20221201054455 69 141 2.0 9.0 0.00 0.00 0.00 59 1012.3
20221201053944 69 115 2.0 9.0 0.00 0.00 0.00 58 1012.3
20221201053434 69 26 2.0 8.0 0.00 0.00 0.00 57 1012.3
20221201052928 69 119 1.0 8.0 0.00 0.00 0.00 58 1012.2
20221201052651 69 57 1.0 8.0 0.00 0.00 0.00 57 1012.2
20221201051912 69 45 2.0 8.0 0.00 0.00 0.00 60 1012.3
20221201051406 69 137 2.0 8.0 0.00 0.00 0.00 60 1012.1
20221201050856 69 189 2.0 8.0 0.00 0.00 0.00 59 1012.2
20221201050347 69 333 2.0 6.0 0.00 0.00 0.00 59 1012.3
20221201045840 69 155 2.0 8.0 0.00 0.00 0.00 59 1012.2
20221201045334 69 145 2.0 10.0 0.00 0.00 0.00 61 1012.4
20221201044824 69 103 2.0 10.0 0.00 0.00 0.00 61 1012.4
20221201044311 69 137 2.0 10.0 0.00 0.00 0.00 59 1012.6
20221201043807 69 72 2.0 7.0 0.00 0.00 0.00 61 1012.5
20221201043529 69 332 2.0 7.0 0.00 0.00 0.00 60 1012.5
20221201042751 69 154 1.0 7.0 0.00 0.00 0.00 59 1012.5
20221201042238 69 61 1.0 6.0 0.00 0.00 0.00 59 1012.4
20221201041959 69 42 2.0 8.0 0.00 0.00 0.00 60 1012.5
20221201041218 70 54 3.0 10.0 0.00 0.00 0.00 59 1012.7
20221201040939 69 82 3.0 10.0 0.00 0.00 0.00 59 1012.6
20221201040202 70 135 2.0 7.0 0.00 0.00 0.00 59 1012.7
20221201035658 70 145 1.0 7.0 0.00 0.00 0.00 59 1012.7
20221201035146 70 57 2.0 9.0 0.00 0.00 0.00 58 1012.6
20221201034636 70 116 2.0 9.0 0.00 0.00 0.00 60 1012.8
20221201034132 70 242 3.0 10.0 0.00 0.00 0.00 60 1013.0
20221201033852 70 163 3.0 10.0 0.00 0.00 0.00 58 1013.0
20221201033109 70 84 2.0 7.0 0.00 0.00 0.00 59 1013.0
20221201032604 70 49 2.0 9.0 0.00 0.00 0.00 59 1013.1
20221201032057 71 153 1.0 9.0 0.00 0.00 0.00 60 1013.1
20221201031548 70 40 1.0 6.0 0.00 0.00 0.00 58 1013.1
20221201031042 69 57 2.0 7.0 0.00 0.00 0.00 61 1013.0
20221201030536 69 47 2.0 7.0 0.00 0.00 0.00 60 1013.1
20221201030026 69 154 1.0 6.0 0.00 0.00 0.00 61 1013.1
20221201025515 68 102 1.0 6.0 0.00 0.00 0.00 63 1013.1
20221201025006 68 139 1.0 7.0 0.00 0.00 0.00 63 1013.2
20221201024958 68 84 1.0 7.0 0.00 0.00 0.00 62 1013.3
20221201023953 68 67 1.0 7.0 0.00 0.00 0.00 63 1013.4
20221201023708 68 134 1.0 7.0 0.00 0.00 0.00 63 1013.5
20221201022927 68 99 0.0 5.0 0.00 0.00 0.00 65 1013.5
20221201022415 68 98 1.0 6.0 0.00 0.00 0.00 65 1013.6
20221201022406 68 143 1.0 6.0 0.00 0.00 0.00 64 1013.7
20221201021358 68 136 0.0 6.0 0.00 0.00 0.00 65 1013.7
20221201020841 68 54 0.0 4.0 0.00 0.00 0.00 64 1013.7
20221201020331 68 55 0.0 4.0 0.00 0.00 0.00 63 1013.8
20221201020046 68 76 1.0 5.0 0.00 0.00 0.00 64 1013.7
20221201015305 68 76 1.0 5.0 0.00 0.00 0.00 64 1013.9
20221201014745 68 69 1.0 6.0 0.00 0.00 0.00 66 1014.0
20221201014233 68 137 1.0 6.0 0.00 0.00 0.00 65 1014.0
20221201013717 68 142 0.0 5.0 0.00 0.00 0.00 65 1014.1
20221201013207 68 65 0.0 4.0 0.00 0.00 0.00 65 1014.2
20221201012656 68 67 0.0 4.0 0.00 0.00 0.00 65 1014.2
20221201012154 68 118 0.0 4.0 0.00 0.00 0.00 64 1014.3
20221201011654 68 146 1.0 8.0 0.00 0.00 0.00 65 1014.3
20221201011154 67 154 1.0 8.0 0.00 0.00 0.00 65 1014.3
20221201010642 67 128 1.0 5.0 0.00 0.00 0.00 66 1014.4
20221201010144 67 142 1.0 5.0 0.00 0.00 0.00 65 1014.4
20221201005641 67 98 1.0 6.0 0.00 0.00 0.00 67 1014.4
20221201005136 67 136 1.0 6.0 0.00 0.00 0.00 67 1014.5
20221201004637 67 96 1.0 5.0 0.00 0.00 0.00 67 1014.5
20221201004131 67 139 1.0 9.0 0.00 0.00 0.00 67 1014.5
20221201003623 67 42 1.0 9.0 0.00 0.00 0.00 66 1014.5
20221201003110 67 29 1.0 6.0 0.00 0.00 0.00 66 1014.6
20221201002603 67 100 1.0 7.0 0.00 0.00 0.00 68 1014.5
20221201002331 67 30 1.0 7.0 0.00 0.00 0.00 67 1014.5
20221201001547 67 72 1.0 6.0 0.00 0.00 0.00 67 1014.4
20221201001043 67 34 1.0 6.0 0.00 0.00 0.00 67 1014.5
20221201000807 67 96 1.0 6.0 0.00 0.00 0.00 66 1014.5
20221201000026 67 145 1.0 6.0 0.00 0.00 0.00 65 1014.4
20221130235515 67 64 1.0 6.0 0.00 0.00 0.00 66 1014.4
20221130235009 67 57 0.0 5.0 0.00 0.00 0.00 67 1014.5
20221130234500 68 56 0.0 5.0 0.00 0.00 0.00 66 1014.6
20221130233949 67 55 0.0 5.0 0.00 0.00 0.00 67 1014.6
20221130233444 67 51 1.0 5.0 0.00 0.00 0.00 66 1014.7
20221130232937 68 71 0.0 5.0 0.00 0.00 0.00 66 1014.7
20221130232427 68 111 1.0 6.0 0.00 0.00 0.00 65 1014.6
20221130231918 68 111 1.0 6.0 0.00 0.00 0.00 66 1014.6
20221130231638 68 139 1.0 6.0 0.00 0.00 0.00 66 1014.6
20221130230857 68 103 0.0 4.0 0.00 0.00 0.00 66 1014.6
20221130230348 68 92 1.0 4.0 0.00 0.00 0.00 66 1014.6
20221130225839 68 90 1.0 4.0 0.00 0.00 0.00 67 1014.6
20221130225331 67 57 1.0 6.0 0.00 0.00 0.00 67 1014.6
20221130224825 67 107 1.0 6.0 0.00 0.00 0.00 67 1014.6
20221130224311 67 44 1.0 6.0 0.00 0.00 0.00 68 1014.6
20221130223800 68 76 1.0 6.0 0.00 0.00 0.00 67 1014.7
20221130223526 68 48 1.0 5.0 0.00 0.00 0.00 68 1014.8
20221130222749 67 80 1.0 5.0 0.00 0.00 0.00 68 1014.9
20221130222250 67 63 0.0 4.0 0.00 0.00 0.00 68 1014.8
20221130221729 67 57 0.0 4.0 0.00 0.00 0.00 69 1014.9
20221130221219 67 56 0.0 5.0 0.00 0.00 0.00 68 1014.8
20221130220711 67 17 1.0 7.0 0.00 0.00 0.00 69 1014.9
20221130220439 67 146 1.0 7.0 0.00 0.00 0.00 69 1014.7
20221130215657 67 152 0.0 4.0 0.00 0.00 0.00 71 1014.8
20221130215148 67 152 1.0 6.0 0.00 0.00 0.00 71 1014.7
20221130214638 67 136 0.0 6.0 0.00 0.00 0.00 72 1014.6
20221130214131 66 71 0.0 4.0 0.00 0.00 0.00 73 1014.5
20221130213621 66 116 0.0 4.0 0.00 0.00 0.00 73 1014.5
20221130213111 66 143 0.0 5.0 0.00 0.00 0.00 74 1014.5
20221130212606 66 155 0.0 5.0 0.00 0.00 0.00 73 1014.5
20221130212056 65 55 0.0 5.0 0.00 0.00 0.00 75 1014.4
20221130211549 66 68 1.0 6.0 0.00 0.00 0.00 75 1014.4
20221130211039 65 149 0.0 6.0 0.00 0.00 0.00 74 1014.3
20221130210528 65 90 0.0 4.0 0.00 0.00 0.00 75 1014.3
20221130210023 65 135 0.0 6.0 0.00 0.00 0.00 75 1014.2
20221130205752 65 133 0.0 4.0 0.00 0.00 0.00 76 1014.2
20221130205015 65 113 0.0 5.0 0.00 0.00 0.00 76 1014.2
20221130204515 65 132 0.0 5.0 0.00 0.00 0.00 77 1014.2
20221130204016 65 130 0.0 3.0 0.00 0.00 0.00 77 1014.2
20221130203455 64 130 0.0 1.0 0.00 0.00 0.00 78 1014.2
20221130202941 64 130 0.0 0.0 0.00 0.00 0.00 79 1014.1
20221130202437 64 130 0.0 1.0 0.00 0.00 0.00 80 1014.1
20221130201918 63 129 0.0 0.0 0.00 0.00 0.00 83 1014.1
20221130201411 61 130 0.0 0.0 0.00 0.00 0.00 86 1014.0
20221130201135 61 130 0.0 0.0 0.00 0.00 0.00 87 1013.9
20221130200353 61 129 0.0 0.0 0.00 0.00 0.00 87 1013.7
20221130200117 61 129 0.0 0.0 0.00 0.00 0.00 87 1013.5
20221130195341 61 130 0.0 0.0 0.00 0.00 0.00 87 1013.5
20221130195057 60 129 0.0 0.0 0.00 0.00 0.00 87 1013.4
20221130194931 60 130 0.0 0.0 0.00 0.00 0.00 87 1013.6
20221130193814 60 129 0.0 0.0 0.00 0.00 0.00 86 1013.5
20221130193540 60 129 0.0 0.0 0.00 0.00 0.00 87 1013.5
20221130192757 60 129 0.0 0.0 0.00 0.00 0.00 87 1013.4
20221130192259 60 129 0.0 0.0 0.00 0.00 0.00 86 1013.5
20221130191759 60 129 0.0 0.0 0.00 0.00 0.00 86 1013.4
20221130191251 60 130 0.0 0.0 0.00 0.00 0.00 87 1013.3
20221130190751 60 129 0.0 0.0 0.00 0.00 0.00 86 1013.3
20221130190241 60 129 0.0 0.0 0.00 0.00 0.00 86 1013.1
20221130185738 60 130 0.0 0.0 0.00 0.00 0.00 86 1013.2
20221130185236 60 130 0.0 0.0 0.00 0.00 0.00 86 1013.2
20221130184734 60 130 0.0 0.0 0.00 0.00 0.00 86 1013.2
20221130184235 60 130 0.0 0.0 0.00 0.00 0.00 86 1013.1
20221130183718 60 129 0.0 0.0 0.00 0.00 0.00 86 1013.0
20221130183206 60 129 0.0 0.0 0.00 0.00 0.00 86 1012.9
20221130182705 60 129 0.0 0.0 0.00 0.00 0.00 86 1012.9
20221130182204 60 130 0.0 0.0 0.00 0.00 0.00 86 1012.7
20221130181702 60 129 0.0 0.0 0.00 0.00 0.00 86 1012.7
20221130181203 60 130 0.0 0.0 0.00 0.00 0.00 86 1012.6
20221130180659 60 130 0.0 0.0 0.00 0.00 0.00 86 1012.6
20221130180431 60 129 0.0 0.0 0.00 0.00 0.00 86 1012.7
20221130175657 60 130 0.0 0.0 0.00 0.00 0.00 86 1012.7
20221130175154 60 130 0.0 0.0 0.00 0.00 0.00 86 1012.6
20221130174653 60 130 0.0 0.0 0.00 0.00 0.00 86 1012.6
20221130174149 60 129 0.0 0.0 0.00 0.00 0.00 86 1012.6
20221130173911 60 129 0.0 0.0 0.00 0.00 0.00 86 1012.6
20221130173134 60 129 0.0 0.0 0.00 0.00 0.00 85 1012.5
20221130172636 60 129 0.0 0.0 0.00 0.00 0.00 85 1012.6
20221130172134 60 130 0.0 0.0 0.00 0.00 0.00 85 1012.6
20221130171907 60 129 0.0 0.0 0.00 0.00 0.00 85 1012.7
20221130171134 60 130 0.0 0.0 0.00 0.00 0.00 85 1012.8
20221130170632 60 130 0.0 0.0 0.00 0.00 0.00 85 1012.7
20221130170129 60 129 0.0 0.0 0.00 0.00 0.00 85 1012.7
20221130165628 60 129 0.0 0.0 0.00 0.00 0.00 85 1012.7
20221130165358 60 130 0.0 0.0 0.00 0.00 0.00 85 1012.7
20221130164619 60 129 0.0 0.0 0.00 0.00 0.00 85 1012.7
20221130164112 60 129 0.0 0.0 0.00 0.00 0.00 85 1012.7
20221130163630 60 129 0.0 0.0 0.00 0.00 0.00 84 1013.1
20221130163610 60 130 0.0 0.0 0.00 0.00 0.00 85 1012.8
20221130163556 60 129 0.0 0.0 0.00 0.00 0.00 84 1013.4
20221130163550 60 130 0.0 0.0 0.00 0.00 0.00 85 1013.2
20221130163544 60 130 0.0 0.0 0.00 0.00 0.00 84 1013.0
20221130163537 60 130 0.0 0.0 0.00 0.00 0.00 84 1013.0
20221130163529 60 129 0.0 0.0 0.00 0.00 0.00 84 1013.1
20221130163522 60 129 0.0 0.0 0.00 0.00 0.00 85 1012.9
20221130163518 60 130 0.0 0.0 0.00 0.00 0.00 85 1012.9
20221130163352 60 129 0.0 0.0 0.00 0.00 0.00 84 1013.2
20221130163344 60 129 0.0 0.0 0.00 0.00 0.00 84 1013.2
20221130163338 60 129 0.0 0.0 0.00 0.00 0.00 84 1013.0
20221130153451 60 129 0.0 0.0 0.00 0.00 0.00 83 1013.3
20221130153213 60 129 0.0 0.0 0.00 0.00 0.00 83 1013.2
20221130152432 60 129 0.0 0.0 0.00 0.00 0.00 82 1013.2
20221130151921 60 129 0.0 0.0 0.00 0.00 0.00 82 1013.2
20221130151416 60 129 0.0 0.0 0.00 0.00 0.00 82 1013.3
20221130151141 60 130 0.0 0.0 0.00 0.00 0.00 81 1013.2
20221130150400 60 130 0.0 0.0 0.00 0.00 0.00 81 1013.3
20221130145849 60 130 0.0 0.0 0.00 0.00 0.00 81 1013.3
20221130145344 60 129 0.0 0.0 0.00 0.00 0.00 81 1013.3
20221130144836 61 129 0.0 0.0 0.00 0.00 0.00 80 1013.4
20221130144326 61 130 0.0 0.0 0.00 0.00 0.00 80 1013.5
20221130143814 61 129 0.0 0.0 0.00 0.00 0.00 80 1013.5
20221130143304 61 130 0.0 0.0 0.00 0.00 0.00 79 1013.7
20221130142753 61 130 0.0 0.0 0.00 0.00 0.00 79 1013.7
20221130142251 61 130 0.0 0.0 0.00 0.00 0.00 79 1013.7
20221130141738 61 129 0.0 0.0 0.00 0.00 0.00 78 1013.7
20221130141232 61 129 0.0 0.0 0.00 0.00 0.00 78 1013.8
20221130140721 62 130 0.0 0.0 0.00 0.00 0.00 78 1013.8
20221130140207 62 130 0.0 0.0 0.00 0.00 0.00 78 1013.8
20221130135705 62 130 0.0 0.0 0.00 0.00 0.00 78 1013.9
20221130135155 62 129 0.0 0.0 0.00 0.00 0.00 77 1013.8
20221130134649 62 130 0.0 0.0 0.00 0.00 0.00 77 1013.8
20221130134144 62 129 0.0 0.0 0.00 0.00 0.00 77 1013.9
20221130133642 62 130 0.0 0.0 0.00 0.00 0.00 77 1014.0
20221130133142 62 130 0.0 0.0 0.00 0.00 0.00 77 1013.9
20221130132912 62 129 0.0 0.0 0.00 0.00 0.00 76 1014.1
20221130132141 62 130 0.0 0.0 0.00 0.00 0.00 76 1014.3
20221130131640 62 129 0.0 0.0 0.00 0.00 0.00 76 1014.3
20221130131140 63 130 0.0 0.0 0.00 0.00 0.00 75 1014.3
20221130130635 63 129 0.0 0.0 0.00 0.00 0.00 76 1014.3
20221130130134 63 129 0.0 0.0 0.00 0.00 0.00 75 1014.4
20221130125633 63 130 0.0 0.0 0.00 0.00 0.00 75 1014.5
20221130125122 63 130 0.0 0.0 0.00 0.00 0.00 75 1014.6
20221130124623 63 130 0.0 0.0 0.00 0.00 0.00 75 1014.6
20221130124111 63 130 0.0 0.0 0.00 0.00 0.00 75 1014.7
20221130123609 63 130 0.0 0.0 0.00 0.00 0.00 75 1014.8
20221130123334 63 129 0.0 0.0 0.00 0.00 0.00 74 1014.9
20221130122553 63 130 0.0 0.0 0.00 0.00 0.00 74 1015.0
20221130122047 63 129 0.0 0.0 0.00 0.00 0.00 74 1014.9
20221130121542 63 129 0.0 0.0 0.00 0.00 0.00 74 1014.9
20221130121031 63 130 0.0 0.0 0.00 0.00 0.00 74 1014.9
20221130120521 63 129 0.0 0.0 0.00 0.00 0.00 74 1014.8
20221130120011 63 129 0.0 0.0 0.00 0.00 0.00 73 1014.9
20221130115505 63 130 0.0 0.0 0.00 0.00 0.00 73 1015.0
20221130115226 63 129 0.0 0.0 0.00 0.00 0.00 73 1015.0
20221130115114 63 130 0.0 0.0 0.00 0.00 0.00 73 1015.1
20221130113954 63 129 0.0 0.0 0.00 0.00 0.00 73 1015.1
20221130113433 63 130 0.0 0.0 0.00 0.00 0.00 73 1015.2
20221130112928 63 129 0.0 0.0 0.00 0.00 0.00 73 1015.1
20221130112427 63 129 0.0 0.0 0.00 0.00 0.00 73 1015.1
20221130111917 63 129 0.0 0.0 0.00 0.00 0.00 72 1015.1
20221130111403 63 129 0.0 0.0 0.00 0.00 0.00 72 1015.1
20221130110850 64 130 0.0 0.0 0.00 0.00 0.00 72 1015.0
20221130110341 64 130 0.0 0.0 0.00 0.00 0.00 72 1014.9
20221130105837 63 129 0.0 2.0 0.00 0.00 0.00 72 1015.0
20221130105327 64 129 0.0 4.0 0.00 0.00 0.00 72 1015.0
20221130104811 64 51 0.0 0.0 0.00 0.00 0.00 71 1015.0
20221130104536 64 71 0.0 0.0 0.00 0.00 0.00 72 1015.1
20221130104036 64 71 0.0 0.0 0.00 0.00 0.00 71 1015.0
20221130103259 64 71 0.0 0.0 0.00 0.00 0.00 71 1014.9
20221130102749 64 71 0.0 0.0 0.00 0.00 0.00 71 1014.9
20221130102238 64 71 0.0 1.0 0.00 0.00 0.00 71 1014.9
20221130101956 64 71 0.0 5.0 0.00 0.00 0.00 71 1014.8
20221130101718 64 114 0.0 5.0 0.00 0.00 0.00 71 1014.7
20221130100707 64 61 0.0 2.0 0.00 0.00 0.00 70 1014.4
20221130100157 64 335 0.0 5.0 0.00 0.00 0.00 70 1014.4
20221130095646 64 73 0.0 5.0 0.00 0.00 0.00 70 1014.4
20221130095409 64 240 0.0 6.0 0.00 0.00 0.00 69 1014.5
20221130094627 64 81 1.0 6.0 0.00 0.00 0.00 69 1014.4
20221130094347 64 25 1.0 6.0 0.00 0.00 0.00 69 1014.4
20221130093606 64 108 0.0 7.0 0.00 0.00 0.00 69 1014.6
20221130093332 64 74 1.0 5.0 0.00 0.00 0.00 69 1014.5
20221130092554 64 59 1.0 7.0 0.00 0.00 0.00 69 1014.5
20221130092312 64 34 1.0 8.0 0.00 0.00 0.00 69 1014.6
20221130092147 64 168 1.0 8.0 0.00 0.00 0.00 69 1014.7
20221130091029 64 76 1.0 8.0 0.00 0.00 0.00 68 1014.6
20221130091022 64 84 1.0 5.0 0.00 0.00 0.00 68 1014.7
20221130090012 64 54 1.0 6.0 0.00 0.00 0.00 68 1014.7
20221130085506 65 100 1.0 8.0 0.00 0.00 0.00 68 1014.8
20221130085003 65 34 2.0 9.0 0.00 0.00 0.00 68 1014.6
20221130084447 65 112 1.0 8.0 0.00 0.00 0.00 68 1014.6
20221130083937 65 32 1.0 9.0 0.00 0.00 0.00 68 1014.3
20221130083434 65 160 2.0 9.0 0.00 0.00 0.00 68 1014.1
20221130082917 65 44 2.0 7.0 0.00 0.00 0.00 67 1013.9
20221130082407 65 74 2.0 6.0 0.00 0.00 0.00 67 1013.7
20221130081905 65 111 2.0 6.0 0.00 0.00 0.00 66 1013.7
20221130081405 65 83 2.0 6.0 0.00 0.00 0.00 66 1013.7
20221130080905 65 76 2.0 6.0 0.00 0.00 0.00 65 1013.6
20221130080637 65 65 1.0 6.0 0.00 0.00 0.00 65 1013.5
20221130075903 65 153 1.0 8.0 0.00 0.00 0.00 64 1013.4
20221130075404 66 70 1.0 8.0 0.00 0.00 0.00 63 1013.4
20221130074903 66 334 0.0 5.0 0.00 0.00 0.00 62 1013.5
20221130074405 66 57 0.0 0.0 0.00 0.00 0.00 63 1013.4
20221130074130 66 63 0.0 2.0 0.00 0.00 0.00 63 1013.4
20221130073358 66 64 0.0 5.0 0.00 0.00 0.00 62 1013.4
20221130072857 66 64 1.0 5.0 0.00 0.00 0.00 62 1013.3
20221130072628 66 133 1.0 9.0 0.00 0.00 0.00 61 1013.4
20221130071844 66 112 1.0 9.0 0.00 0.00 0.00 61 1013.4
20221130071342 67 71 2.0 9.0 0.00 0.00 0.00 60 1013.3
20221130070845 67 48 2.0 10.0 0.00 0.00 0.00 59 1013.4
20221130070841 67 176 3.0 10.0 0.00 0.00 0.00 59 1013.3